Regional Weather Roundup
Issued by NWS Green Bay, WI

Home | Current Version | Previous Version | Text Only | Print | Product List | Glossary On
Versions: 1 2 3 4 5 6 7 8 9 10 11 12 13 14 15 16 17 18 19 20 21 22 23 24 25 26 27 28 29 30 31 32 33 34 35 36 37 38 39 40 41 42 43 44 45 46 47 48 49 50
000
ASUS43 KGRB 242210
RWRGRB

NORTH-CENTRAL AND NORTHEAST WISCONSIN REGIONAL WEATHER ROUNDUP
NATIONAL WEATHER SERVICE GREEN BAY WI
400 PM CST WED DEC 24 2014

WIZ005-009-010>012-018-019-242300-
NORTH CENTRAL WISCONSIN

CITY           SKY/WX    TMP DP  RH WIND       PRES   REMARKS
IRONWOOD       CLOUDY    30  30 100 N5        29.53S
MANITOWISH WTR CLOUDY    30  30  99 N6        29.52S
ARBOR VITAE    LGT SNOW  32  30  92 N7        29.52S
EAGLE RIVER    FLURRIES  30  29  96 NW8       29.50S
LAND O LAKES   LGT SNOW  31  29  94 N3        29.51S
RHINELANDER    CLOUDY    30  28  92 N6        29.51S
PHILLIPS       CLOUDY    32  29  90 NW7       29.53F
ANTIGO         CLOUDY    31  30  96 NW8       29.49R
TOMAHAWK       LGT SNOW  31  29  92 CALM      29.53S
MERRILL        CLOUDY    32  30  93 N6        29.52S
$$

WIZ013-073-242300-
NORTHEAST WISCONSIN

CITY           SKY/WX    TMP DP  RH WIND       PRES   REMARKS
IRON MOUNTAIN  CLOUDY    32  29  88 NW9       29.47S
MARINETTE      CLOUDY    34  32  93 N8        29.47S
OCONTO         CLOUDY    34  34 100 N7        29.48S
$$

WIZ017-030-035>037-045-242300-
CENTRAL WISCONSIN

CITY           SKY/WX    TMP DP  RH WIND       PRES   REMARKS
MEDFORD        CLOUDY    32  28  86 N9        29.52F
WAUSAU         CLOUDY    33  29  85 N8        29.50S
MOSINEE        CLOUDY    34  34 100 NW8       29.52
MARSHFIELD     CLOUDY    34  29  82 NW12      29.52S
WISC RAPIDS    CLOUDY    34  30  85 NW8       29.54R
STEVENS POINT  CLOUDY    32  31  96 NW6       29.52R
WAUPACA        CLOUDY    36  35  96 NW6       29.51R
SHAWANO        CLOUDY    36  35  96 NW3       29.49S
CLINTONVILLE   CLOUDY    34  34 100 NW3       29.49S
$$

WIZ038-039-048-051-242300-
FOX VALLEY

CITY           SKY/WX    TMP DP  RH WIND       PRES   REMARKS
NWS GREEN BAY  CLOUDY    35  34  96 N7        29.48S FOG
APPLETON       FOG       34  34 100 NW6       29.49R VSB 1
OSHKOSH        CLOUDY    35  33  92 NW6       29.48S FOG
FOND DU LAC    FLURRIES  34  32  92 NW7       29.49S
$$

WIZ022-050-052-242300-
EAST CENTRAL WISCONSIN

CITY           SKY/WX    TMP DP  RH WIND       PRES   REMARKS
STURGEON BAY   CLOUDY    36  32  87 N12       29.47F VSB 3/4
MANITOWOC      CLOUDY    36  35  96 NW8       29.47S
SHEBOYGAN      CLOUDY    36  34  92 NW8       29.47R FOG
$$

LMZ563-521-522-541>543-242300-
LAKESHORE

STATION/POSITION TIME  TEMP    WIND        PRES    VSBY  WAVE
                       AIR SEA DIR/SP/G                  HT/PER
                 (UTC) (F)     (DEG/KT/KT) (MB)    (MI)  (FT/S)
SHEBOYGAN LKSHOR 2200   38 37  300/ 11/ 12  998.4F
KEWAUNEE LKSHORE 2200   35     320/  4/  9  997.0F
ALGOMA MARINA    2200          350/ 11/ 16   N/A
NORTHPORT PIER   2200   35     340/ 11/ 14  998.0F
SISTER BAY LKSHO 2100           20/ 13/ 17   N/A
STURGEON BAY CG  2200   35     320/  4      998.9   1 1/4  1
CHAMBERS ISLAND  2100   35     340/  8/  9  998.6S
MENOMINEE LKSHOR 2200   35     330/ 10/ 12  999.0S
$$


USA.gov is the U.S. government's official web portal to all federal, state and local government web resources and services.